[[{"header":{"parameterUnit":"m.s-1","parameterCategory":1,"la1":30.2992,"la2":30.254,"lo1":-89.0895,"lo2":-89.0443,"dy":0.0025,"dx":0.0025,"nx":19,"ny":19,"refTime":"2026-05-12T21:00:00:Z","depth":0,"parameterNumber":2,"parameterNumberName":"U-component_of_WINDS"},"data":[0,0,0,-1.445,-1.445,-1.442,-1.442,-1.4404,-1.4404,0,0,0,0,0,0,0,0,0,0,0,-1.4473,-1.4473,-1.445,-1.445,-1.442,-1.442,-1.4404,-1.4404,0,0,0,0,0,0,0,0,0,0,0,-1.4472,-1.4473,-1.4473,-1.4449,-1.442,-1.442,-1.4404,-1.4418,0,0,0,0,0,0,0,0,0,0,-1.4443,-1.4478,-1.4473,-1.4473,-1.4449,-1.442,-1.442,-1.4419,-1.4417,-1.4427,0,-1.444,0,-1.4422,-1.4404,-1.4404,0,0,0,-1.4439,-1.4479,-1.4458,-1.4473,-1.4449,-1.442,-1.443,-1.4418,-1.4416,-1.4425,-1.4439,-1.4438,-1.4421,-1.4404,-1.4404,-1.4495,-1.4495,0,0,-1.4441,-1.4475,-1.446,-1.4458,-1.4465,-1.4431,-1.443,-1.4416,-1.4434,-1.4439,-1.4437,-1.4421,-1.4405,-1.4405,-1.4494,-1.4495,0,0,0,-1.4452,-1.4477,-1.4455,-1.446,-1.4453,-1.4431,-1.4429,-1.4434,-1.4424,-1.4437,-1.4421,-1.4405,-1.4405,-1.4493,-1.4494,-1.4573,0,0,0,-1.4453,-1.4483,-1.4457,-1.4478,-1.4453,-1.4443,-1.4447,-1.4425,-1.4423,-1.4421,-1.4405,-1.4405,-1.4492,-1.4493,-1.4569,-1.4606,0,0,0,-1.447,-1.4485,-1.4486,-1.448,-1.4468,-1.4443,-1.4432,-1.4424,-1.4414,-1.4404,-1.4405,-1.4491,-1.4493,-1.4565,-1.4599,-1.464,0,0,0,-1.4498,-1.4557,-1.4488,-1.4547,-1.4469,-1.4492,-1.4432,-1.4447,-1.4448,-1.4405,-1.4492,-1.4494,-1.4564,-1.4595,-1.4636,-1.4682,-1.4703,0,0,-1.4592,-1.457,-1.4602,-1.4539,-1.4583,-1.4493,-1.4549,-1.4517,-1.4485,-1.4493,-1.4495,-1.457,-1.4599,-1.4639,-1.4811,-1.4829,0,0,0,-1.4643,-1.4667,-1.4671,-1.4674,-1.4651,-1.4634,-1.459,-1.4578,-1.4583,-1.4496,-1.4594,-1.461,-1.4632,-1.4652,-1.4667,-1.4684,-1.4504,-1.4504,-1.4504,-1.4828,-1.4782,-1.4832,-1.4782,-1.4785,-1.4738,-1.4736,-1.4712,-1.4665,-1.4689,-1.4692,-1.4802,-1.4827,-1.4838,-1.4856,-1.4711,-1.4711,-1.4711,-1.4711,-1.4962,-1.4989,-1.4923,-1.4949,-1.4899,-1.492,-1.4876,-1.4841,-1.4853,-1.4796,-1.4813,-1.4758,-1.4859,-1.4872,-1.4717,-1.4716,-1.4715,-1.4715,-1.4714,-1.508,-1.5084,-1.5068,-1.5065,-1.5068,-1.5015,-1.5028,-1.4982,-1.4939,-1.4956,-1.4954,-1.4952,-1.4946,-1.4957,-1.4958,-1.4958,-1.4959,-1.4959,-1.4959,-1.5209,-1.5187,-1.5205,-1.5183,-1.5178,-1.5165,-1.5116,-1.5109,-1.5089,-1.5055,-1.5054,-1.5006,-1.4876,-1.4846,-1.4965,-1.4964,-1.4963,-1.4963,-1.4962,-1.5366,-1.5322,-1.535,-1.5344,-1.5314,-1.532,-1.5259,-1.5248,-1.5236,-1.5243,-1.5189,-1.5101,-1.5075,-1.5063,-1.5038,-1.5199,-1.5199,-1.5199,-1.5199,-1.5467,-1.5448,-1.5464,-1.5458,-1.5447,-1.5394,-1.5425,-1.5386,-1.5339,-1.5328,-1.5297,-1.5258,-1.5248,-1.5228,-1.5213,-1.5188,-1.5384,-1.5384,-1.5384,-1.5561,-1.5538,-1.5575,-1.5528,-1.55,-1.5477,-1.5504,-1.5498,-1.5436,-1.5391,-1.5318,-1.531,-1.5247,-1.5229,-1.5187,-1.5163,-1.5117,0,0]},{"header":{"parameterUnit":"m.s-1","parameterCategory":1,"la1":30.2992,"la2":30.254,"lo1":-89.0895,"lo2":-89.0443,"dy":0.0025,"dx":0.0025,"nx":19,"ny":19,"refTime":"2026-05-12T21:00:00:Z","depth":0,"parameterNumber":3,"parameterNumberName":"V-component_of_WINDS"},"data":[0,0,0,-3.6062,-3.6066,-3.6258,-3.6258,-3.6495,-3.6497,0,0,0,0,0,0,0,0,0,0,0,-3.6003,-3.6004,-3.6062,-3.6067,-3.6257,-3.6258,-3.6495,-3.6497,0,0,0,0,0,0,0,0,0,0,0,-3.6002,-3.6004,-3.6006,-3.6067,-3.6257,-3.6258,-3.6494,-3.6352,0,0,0,0,0,0,0,0,0,0,-3.6168,-3.611,-3.6003,-3.6006,-3.6069,-3.6257,-3.6259,-3.6346,-3.6361,-3.6406,0,-3.6445,0,-3.6475,-3.6513,-3.6513,0,0,0,-3.6069,-3.6097,-3.6152,-3.6006,-3.607,-3.6257,-3.6172,-3.6354,-3.6372,-3.6426,-3.6449,-3.6458,-3.6479,-3.6514,-3.6515,-3.6768,-3.6769,0,0,-3.6058,-3.6035,-3.6139,-3.6163,-3.6134,-3.6166,-3.6178,-3.6365,-3.6388,-3.645,-3.6464,-3.6483,-3.6516,-3.6517,-3.6767,-3.6768,0,0,0,-3.6027,-3.6027,-3.6078,-3.6153,-3.6188,-3.6171,-3.6185,-3.638,-3.6398,-3.6466,-3.6486,-3.6517,-3.652,-3.6765,-3.6767,-3.6799,0,0,0,-3.602,-3.6009,-3.6073,-3.606,-3.6184,-3.6287,-3.6195,-3.6385,-3.6407,-3.6484,-3.6517,-3.6522,-3.6764,-3.6766,-3.6796,-3.6818,0,0,0,-3.5991,-3.6006,-3.6032,-3.6059,-3.614,-3.6284,-3.6313,-3.639,-3.6419,-3.6514,-3.6523,-3.6764,-3.6766,-3.6793,-3.6813,-3.6878,0,0,0,-3.5953,-3.6057,-3.6032,-3.6156,-3.6138,-3.6302,-3.6312,-3.6435,-3.652,-3.6518,-3.6764,-3.6767,-3.6792,-3.681,-3.6875,-3.693,-3.695,0,0,-3.6071,-3.607,-3.6145,-3.6129,-3.6291,-3.6275,-3.6442,-3.6542,-3.6571,-3.67,-3.6706,-3.6797,-3.6813,-3.6878,-3.7071,-3.7087,0,0,0,-3.6175,-3.6228,-3.6276,-3.6357,-3.6436,-3.6505,-3.6581,-3.6618,-3.6729,-3.6633,-3.6838,-3.6848,-3.6887,-3.6915,-3.6928,-3.6963,-3.6778,-3.6778,-3.6778,-3.6309,-3.6342,-3.6468,-3.6524,-3.6602,-3.6679,-3.6745,-3.6808,-3.6817,-3.6865,-3.6904,-3.7018,-3.7049,-3.7059,-3.7095,-3.6935,-3.6935,-3.6935,-3.6935,-3.6486,-3.6567,-3.6578,-3.6704,-3.6738,-3.6844,-3.6922,-3.6925,-3.7028,-3.6991,-3.7027,-3.6985,-3.7076,-3.7109,-3.6938,-3.6938,-3.6937,-3.6937,-3.6937,-3.6579,-3.6623,-3.6667,-3.6787,-3.6875,-3.6927,-3.7026,-3.7052,-3.7078,-3.7114,-3.7158,-3.7157,-3.7161,-3.7133,-3.7133,-3.7133,-3.7134,-3.7134,-3.7134,-3.6658,-3.6706,-3.6786,-3.6879,-3.6934,-3.701,-3.7088,-3.7143,-3.721,-3.7222,-3.7223,-3.7228,-3.7079,-3.7041,-3.7141,-3.714,-3.7139,-3.7138,-3.7138,-3.6826,-3.6793,-3.6917,-3.6972,-3.7083,-3.7169,-3.7202,-3.7311,-3.736,-3.7407,-3.7405,-3.729,-3.7291,-3.728,-3.7249,-3.7397,-3.7397,-3.7397,-3.7397,-3.6905,-3.6908,-3.7041,-3.7128,-3.7216,-3.7258,-3.7397,-3.7459,-3.7517,-3.7549,-3.7531,-3.7492,-3.748,-3.7488,-3.7473,-3.7445,-3.7639,-3.7639,-3.7639,-3.7011,-3.7024,-3.7137,-3.7195,-3.7283,-3.7358,-3.749,-3.7588,-3.7646,-3.765,-3.7575,-3.7565,-3.7502,-3.748,-3.7482,-3.7458,-3.7407,0,0]}]]